Location: Los Gatos B&B
(42.6926°N, 77.0646°W)
Time: 11:37:17
(UTC-05:00)

SL-16 R/B - Visible Passes

Search period start: 19 December 2014 00:00
Search period end: 29 December 2014 00:00
Orbit: 842 x 848 km, 71.0° (Epoch: 18 December)

Date Brightness Start Highest point End Pass type
(mag) Time Alt. Az. Time Alt. Az. Time Alt. Az.
19 Dec 3.7 18:10:35 10° NW 18:15:46 38° WSW 18:20:55 10° S visible
20 Dec 3.7 17:56:35 10° NW 18:01:48 40° WSW 18:07:00 10° S visible
21 Dec 3.7 17:42:35 10° NW 17:47:50 41° WSW 17:53:04 10° S visible
22 Dec 3.2 06:50:54 10° S 06:56:23 53° ESE 07:01:52 10° NNE visible
22 Dec 3.6 17:28:35 10° NW 17:33:53 42° WSW 17:39:08 10° S visible
23 Dec 3.2 06:36:58 10° S 06:42:25 51° ESE 06:47:53 10° NE visible
23 Dec 3.6 17:14:35 10° NW 17:19:55 44° WSW 17:25:12 10° S visible
24 Dec 3.3 06:23:01 10° S 06:28:27 49° ESE 06:33:53 10° NE visible
25 Dec 3.3 06:09:05 10° S 06:14:28 48° ESE 06:19:54 10° NE visible
26 Dec 3.3 05:55:08 10° S 06:00:30 46° ESE 06:05:54 10° NE visible
27 Dec 3.4 05:41:12 10° S 05:46:32 45° ESE 05:51:54 10° NE visible
28 Dec 3.4 05:27:16 10° S 05:32:34 43° ESE 05:37:54 10° NE visible
